Overview Statistics Trail Chart Weather Telemetry Raw packets
 

This is the latest recevied weather packets stored in our database for station/object K7CTM. If no packets are shown the sender has not sent any weather packets the latest 10 day(s).

<< 6 7 8 9 10 11 12 >>
Time Temp. Humidity Pressure Rain* Wind** Luminosity Snow
1788571405 27.78° C 21% 1021.2 hPa 0 mm - 27 W/m² -
1788571102 27.78° C 21% 1021.1 hPa 0 mm - 32 W/m² -
1788570797 28.33° C 21% 1020.7 hPa 0 mm - 33 W/m² -
1788570492 28.33° C 21% 1020.8 hPa 0 mm - 35 W/m² -
1788570187 28.33° C 21% 1020.8 hPa 0 mm - 36 W/m² -
1788569884 28.33° C 21% 1020.6 hPa 0 mm - 39 W/m² -
1788569584 28.89° C 21% 1020.6 hPa 0 mm - 44 W/m² -
1788569284 28.89° C 21% 1021 hPa 0 mm - 53 W/m² -
1788568979 28.89° C 21% 1020.7 hPa 0 mm - 68 W/m² -
1788568674 28.89° C 21% 1020.6 hPa 0 mm - 73 W/m² -
1788568370 28.89° C 21% 1020.3 hPa 0 mm - 77 W/m² -
1788568066 29.44° C 20% 1020.5 hPa 0 mm - 85 W/m² -
1788567765 29.44° C 20% 1020.6 hPa 0 mm - 96 W/m² -
1788567460 30° C 20% 1020.4 hPa 0 mm - 98 W/m² -
1788567159 30° C 20% 1020.3 hPa 0 mm - 108 W/m² -
1788566855 30° C 20% 1020.5 hPa 0 mm - 125 W/m² -
1788566551 30° C 20% 1020.3 hPa 0 mm - 136 W/m² -
1788566246 30° C 20% 1020.3 hPa 0 mm - 143 W/m² -
1788565940 30° C 20% 1020.4 hPa 0 mm - 152 W/m² -
1788565634 30.56° C 20% 1020.3 hPa 0 mm - 167 W/m² -
1788565330 30.56° C 19% 1020.4 hPa 0 mm - 186 W/m² -
1788565026 31.67° C 19% 1020.4 hPa 0 mm - 202 W/m² -
1788564721 31.67° C 18% 1019.9 hPa 0 mm - 225 W/m² -
1788564418 32.22° C 17% 1019.9 hPa 0 mm - 246 W/m² -
1788564115 31.67° C 17% 1020 hPa 0 mm - 263 W/m² -

* Rain latest hour (hover to see other rain measurements)
** Current wind speed in m/s (hover to see current wind gust speed)